Council Bluffs, IA

5:29 PM CST on November 11, 2019 (GMT -0600)
Council Bluffs Municipal

Weather History for KCBF - September, 2019

Change the Weather History Date:

Wednesday, September 18, 2019

  Actual Average Record
Temperature  
Mean Temperature 78 °F -  
Max Temperature 87 °F 73 °F 93 °F (2000)
Min Temperature 69 °F 52 °F 41 °F (2012)
Cooling Degree Days 13    
Growing Degree Days 28 (Base 50)    
Moisture  
Dew Point 72 °F    
Average Humidity 81    
Maximum Humidity 100    
Minimum Humidity 55    
Precipitation  
Precipitation 0.00 in - - ()
Sea Level Pressure  
Sea Level Pressure 29.92 in    
Wind  
Wind Speed 11 mph ()    
Max Wind Speed 18 mph    
Max Gust Speed 23 mph    
Visibility 10.0 miles    
Events      
Averages and records for this station are not official NWS values.
T = Trace of Precipitation, MM = Missing Value Source: Averaged Metar Reports

Daily Weather History Graph

Daily Weather History Graph

Search for Another Location

Airport or City:

Astronomy

Sep. 18, 2019 Rise Set
Actual Time 7:06 AM CDT 7:27 PM CDT
Civil Twilight 6:38 AM CDT 7:55 PM CDT
Nautical Twilight 6:06 AM CDT 8:27 PM CDT
Astronomical Twilight 5:32 AM CDT 9:00 PM CDT
Moon 9:59 PM CDT (9/18) 11:12 AM CDT (9/18)
Length of Visible Light 13h 16m
Length of Day
12h 21m
Waning Gibbous, 82% of the Moon is Illuminated
Sep 18
Waning Gibbous
Sep 21
Last Quarter
Sep 28
New
Oct 5
First Quarter
Oct 13
Full

Hourly Weather History & Observations

Time (CDT) Temp. Heat Index Dew Point Humidity Pressure Visibility Wind Dir Wind Speed Gust Speed Precip Events Conditions
12:15 AM 77.0 °F - 71.6 °F 83% 29.91 in 10.0 mi SSE 11.5 mph 18.4 mph N/A   Clear
12:35 AM 75.2 °F - 71.6 °F 89% 29.90 in 10.0 mi SSE 15.0 mph - N/A   Clear
12:55 AM 75.2 °F - 71.6 °F 89% 29.90 in 10.0 mi SSE 15.0 mph - N/A   Clear
1:15 AM 75.2 °F - 71.6 °F 89% 29.90 in 10.0 mi SSE 16.1 mph - N/A   Clear
1:35 AM 75.2 °F - 71.6 °F 89% 29.91 in 10.0 mi South 11.5 mph - N/A   Clear
1:55 AM 73.4 °F - 71.6 °F 94% 29.91 in 10.0 mi South 10.4 mph - N/A   Clear
2:15 AM 73.4 °F - 71.6 °F 94% 29.92 in 10.0 mi SSE 9.2 mph - N/A   Clear
2:35 AM 73.4 °F - 71.6 °F 94% 29.91 in 10.0 mi SSE 10.4 mph - N/A   Clear
2:55 AM 73.4 °F - 71.6 °F 94% 29.91 in 10.0 mi SSE 10.4 mph - N/A   Clear
3:15 AM 73.4 °F - 71.6 °F 94% 29.91 in 10.0 mi SSE 10.4 mph - N/A   Clear
3:35 AM 73.4 °F - 71.6 °F 94% 29.90 in 10.0 mi SSE 10.4 mph - N/A   Clear
3:55 AM 71.6 °F - 71.6 °F 100% 29.90 in 10.0 mi SSE 10.4 mph - N/A   Clear
4:15 AM 71.6 °F - 71.6 °F 100% 29.89 in 10.0 mi SSE 10.4 mph - N/A   Clear
4:35 AM 71.6 °F - 71.6 °F 100% 29.89 in 10.0 mi SSE 10.4 mph - N/A   Clear
4:55 AM 71.6 °F - 71.6 °F 100% 29.89 in 10.0 mi SSE 11.5 mph - N/A   Clear
5:15 AM 71.6 °F - 71.6 °F 100% 29.89 in 10.0 mi SSE 10.4 mph - N/A   Clear
5:35 AM 69.8 °F - 69.8 °F 100% 29.89 in 10.0 mi SSE 10.4 mph - N/A   Clear
5:55 AM 69.8 °F - 69.8 °F 100% 29.88 in 10.0 mi SSE 10.4 mph - N/A   Clear
6:15 AM 69.8 °F - 69.8 °F 100% 29.88 in 10.0 mi South 8.1 mph - N/A   Clear
6:35 AM 71.6 °F - 71.6 °F 100% 29.89 in 10.0 mi South 8.1 mph - N/A   Clear
6:55 AM 73.4 °F - 71.6 °F 94% 29.89 in 10.0 mi South 15.0 mph - N/A   Clear
7:15 AM 75.2 °F - 71.6 °F 89% 29.89 in 10.0 mi SSW 15.0 mph 20.7 mph N/A   Clear
7:35 AM 75.2 °F - 71.6 °F 89% 29.89 in 10.0 mi SSW 13.8 mph 23.0 mph N/A   Clear
7:55 AM 77.0 °F - 71.6 °F 83% 29.90 in 10.0 mi SSW 12.7 mph 23.0 mph N/A   Clear
8:15 AM 77.0 °F - 71.6 °F 83% 29.90 in 10.0 mi SSW 10.4 mph 21.9 mph N/A   Partly Cloudy
8:35 AM 77.0 °F - 71.6 °F 83% 29.91 in 10.0 mi SSW 11.5 mph 18.4 mph N/A   Scattered Clouds
8:55 AM 77.0 °F - 71.6 °F 83% 29.92 in 10.0 mi SSW 12.7 mph - N/A   Mostly Cloudy
9:15 AM 77.0 °F - 71.6 °F 83% 29.92 in 10.0 mi SSW 11.5 mph 18.4 mph N/A   Overcast
9:35 AM 77.0 °F - 71.6 °F 83% 29.93 in 10.0 mi SSW 10.4 mph - N/A   Overcast
9:55 AM 77.0 °F - 71.6 °F 83% 29.93 in 10.0 mi South 9.2 mph - N/A   Overcast
10:15 AM 77.0 °F - 71.6 °F 83% 29.93 in 10.0 mi South 11.5 mph - N/A   Overcast
10:35 AM 77.0 °F - 71.6 °F 83% 29.93 in 10.0 mi South 10.4 mph - N/A   Overcast
10:55 AM 77.0 °F - 71.6 °F 83% 29.93 in 10.0 mi South 11.5 mph - N/A   Mostly Cloudy
11:15 AM 77.0 °F - 73.4 °F 89% 29.95 in 10.0 mi South 11.5 mph - N/A   Mostly Cloudy
11:35 AM 77.0 °F - 73.4 °F 89% 29.94 in 10.0 mi South 10.4 mph - N/A   Partly Cloudy
11:55 AM 80.6 °F 85.4 °F 73.4 °F 79% 29.95 in 10.0 mi South 10.4 mph - N/A   Clear
12:15 PM 80.6 °F 85.4 °F 73.4 °F 79% 29.95 in 10.0 mi SSW 10.4 mph 18.4 mph N/A   Partly Cloudy
12:35 PM 82.4 °F 88.2 °F 73.4 °F 74% 29.95 in 10.0 mi South 11.5 mph - N/A   Partly Cloudy
12:55 PM 82.4 °F 87.2 °F 71.6 °F 70% 29.95 in 10.0 mi South 12.7 mph 18.4 mph N/A   Clear
1:15 PM 84.2 °F 89.6 °F 71.6 °F 66% 29.94 in 10.0 mi South 16.1 mph - N/A   Clear
1:35 PM 84.2 °F 88.4 °F 69.8 °F 62% 29.94 in 10.0 mi South 15.0 mph 21.9 mph N/A   Clear
1:55 PM 84.2 °F 88.4 °F 69.8 °F 62% 29.93 in 10.0 mi South 18.4 mph - N/A   Clear
2:15 PM 86.0 °F 90.4 °F 69.8 °F 58% 29.93 in 10.0 mi South 15.0 mph 21.9 mph N/A   Clear
2:35 PM 84.2 °F 88.4 °F 69.8 °F 62% 29.93 in 10.0 mi South 15.0 mph - N/A   Clear
2:55 PM 86.0 °F 90.4 °F 69.8 °F 58% 29.93 in 10.0 mi South 15.0 mph - N/A   Clear
3:15 PM 86.0 °F 90.4 °F 69.8 °F 58% 29.93 in 10.0 mi South 17.3 mph - N/A   Clear
3:35 PM 87.8 °F 92.6 °F 69.8 °F 55% 29.92 in 10.0 mi South 16.1 mph 23.0 mph N/A   Partly Cloudy
3:55 PM 87.8 °F 92.6 °F 69.8 °F 55% 29.92 in 10.0 mi South 15.0 mph - N/A   Partly Cloudy
4:15 PM 87.8 °F 92.6 °F 69.8 °F 55% 29.92 in 10.0 mi South 15.0 mph 20.7 mph N/A   Clear
4:35 PM 87.8 °F 92.6 °F 69.8 °F 55% 29.91 in 10.0 mi South 13.8 mph - N/A   Clear
4:55 PM 87.8 °F 92.6 °F 69.8 °F 55% 29.91 in 10.0 mi South 17.3 mph - N/A   Clear
5:15 PM 87.8 °F 92.6 °F 69.8 °F 55% 29.90 in 10.0 mi South 12.7 mph - N/A   Clear
5:35 PM 86.0 °F 90.4 °F 69.8 °F 58% 29.90 in 10.0 mi SSE 11.5 mph - N/A   Clear
5:55 PM 86.0 °F 90.4 °F 69.8 °F 58% 29.89 in 10.0 mi South 15.0 mph - N/A   Clear
6:15 PM 84.2 °F 89.6 °F 71.6 °F 66% 29.89 in 10.0 mi SSE 10.4 mph 16.1 mph N/A   Clear
6:35 PM 84.2 °F 89.6 °F 71.6 °F 66% 29.90 in 10.0 mi SSE 10.4 mph - N/A   Clear
6:55 PM 82.4 °F 87.2 °F 71.6 °F 70% 29.90 in 10.0 mi SE 9.2 mph - N/A   Clear
7:15 PM 80.6 °F 85.4 °F 73.4 °F 79% 29.90 in 10.0 mi SE 6.9 mph - N/A   Clear
7:35 PM 80.6 °F 86.2 °F 75.2 °F 84% 29.91 in 10.0 mi SSE 6.9 mph - N/A   Partly Cloudy
7:55 PM 80.6 °F 86.2 °F 75.2 °F 84% 29.90 in 10.0 mi SE 9.2 mph - N/A   Scattered Clouds
8:15 PM 80.6 °F 86.2 °F 75.2 °F 84% 29.92 in 10.0 mi SE 9.2 mph - N/A   Scattered Clouds
8:35 PM 80.6 °F 86.2 °F 75.2 °F 84% 29.92 in 10.0 mi SE 9.2 mph - N/A   Partly Cloudy
9:15 PM 80.6 °F 85.4 °F 73.4 °F 79% 29.92 in 10.0 mi SSE 9.2 mph - N/A   Partly Cloudy
9:35 PM 78.8 °F - 73.4 °F 83% 29.93 in 10.0 mi SSE 8.1 mph - N/A   Clear
9:55 PM 78.8 °F - 73.4 °F 83% 29.93 in 10.0 mi SSE 9.2 mph - N/A   Clear
10:15 PM 78.8 °F - 73.4 °F 83% 29.93 in 10.0 mi SSE 10.4 mph - N/A   Clear
10:35 PM 78.8 °F - 73.4 °F 83% 29.93 in 10.0 mi SSE 9.2 mph - N/A   Partly Cloudy
10:55 PM 78.8 °F - 73.4 °F 83% 29.93 in 10.0 mi SSE 8.1 mph - N/A   Clear
11:15 PM 77.0 °F - 73.4 °F 89% 29.94 in 10.0 mi South 5.8 mph - N/A   Clear
11:35 PM 77.0 °F - 73.4 °F 89% 29.95 in 10.0 mi South 6.9 mph - N/A   Clear
11:55 PM 77.0 °F - 73.4 °F 89% 29.93 in 10.0 mi South 8.1 mph - N/A   Clear